(532) Herculina
ephemeris date magn radius delta ra dec elong phase
Today18 Jul 202510.43.009 AU2.056 AU21h35m-24°31'155.3°8.1°
Opposition6 Aug 202510.23.038 AU2.036 AU21h19m-27°16'168.9°3.7°
(532) Herculina - 2025-07-18
astro.vanbuitenen.nl


 
-1 year
-1 month
-1 day
Now
+1 day
+1 month
+1 year

The interactive orbit chart above shows the body's path through the solar system and its position at the given date. Green and blue lines are shown perpendicular to the ecliptic plane: Green if the path is above the ecliptic plane, blue if it is below. (Left-click and drag to rotate the view; Right-click and drag to move the view; Use scroll wheel to zoom in our out.)

The orbital elements of Herculina are:

            e (Eccentricity)                : 0.1800323
            a (Semimajor axis)              : 2.7704091
            i (Inclination)                 : 16.29901
            Ω (Longitude of ascending node) : 107.41084
            ω (Argument of perihelion)      : 76.68607
            M (Mean anomaly)                : 93.72416
            Epoch                           : 2025 May 05

            L (Longitude of perihelion)     : 183.56048
            B (Latitude of perihelion)      : 15.84924
            P (Orbital period in years)     : 4.61            
        

The light curve chart below shows the estimated development of the minor planet's magnitude.


The all-sky chart below shows the path of the minor planet over the same period as the light curve. The current position is marked yellow.





The following chart shows the path of the minor planet in the next few days. The field of view is optimized for (~10x50) binoculars and finderscopes. A more printer-friendly version of the same chart can be found below.




Ephemerides:
Date       Time       RA (2000)    DEC (2000)    delta   radius  elong  phase   PA    magn
2025-07-18 00:00 UT   21 35 19.4   -24 31 20     2.056    3.009  155.3    8.1   273   10.4 
2025-07-18 22:55 UT   21 34 41.1   -24 39 45     2.052    3.011  156.3    7.8   274   10.4 
2025-07-19 00:00 UT   21 34 39.2   -24 40 09     2.052    3.011  156.3    7.8   274   10.4 
2025-07-20 00:00 UT   21 33 58.0   -24 48 58     2.049    3.012  157.3    7.5   275   10.4 
2025-07-21 00:00 UT   21 33 15.8   -24 57 47     2.046    3.014  158.3    7.2   277   10.4 
2025-07-22 00:00 UT   21 32 32.5   -25 06 35     2.043    3.015  159.3    6.8   279   10.4 
2025-07-23 00:00 UT   21 31 48.3   -25 15 23     2.041    3.017  160.2    6.5   281   10.4 
2025-07-24 00:00 UT   21 31 03.2   -25 24 09     2.039    3.018  161.2    6.2   283   10.3 
2025-07-25 00:00 UT   21 30 17.3   -25 32 54     2.037    3.020  162.1    5.9   285   10.3 
2025-07-26 00:00 UT   21 29 30.6   -25 41 36     2.035    3.021  163.0    5.6   288   10.3 
2025-07-27 00:00 UT   21 28 43.1   -25 50 15     2.034    3.023  163.9    5.4   291   10.3 
2025-07-28 00:00 UT   21 27 54.8   -25 58 52     2.033    3.024  164.7    5.1   294   10.3 
2025-07-29 00:00 UT   21 27 06.0   -26 07 24     2.032    3.025  165.5    4.8   297   10.3 
2025-07-30 00:00 UT   21 26 16.5   -26 15 53     2.031    3.027  166.2    4.6   301   10.3 
2025-07-31 00:00 UT   21 25 26.4   -26 24 17     2.031    3.028  166.9    4.4   306   10.3 
2025-08-01 00:00 UT   21 24 35.9   -26 32 37     2.031    3.030  167.4    4.2   310   10.2 
2025-08-02 00:00 UT   21 23 44.9   -26 40 51     2.031    3.031  167.9    4.0   315   10.2 
2025-08-03 00:00 UT   21 22 53.5   -26 48 60     2.032    3.033  168.3    3.9   321   10.2 
2025-08-04 00:00 UT   21 22 01.8   -26 57 03     2.033    3.034  168.6    3.8   327   10.2 
2025-08-05 00:00 UT   21 21 09.8   -27 04 59     2.034    3.036  168.8    3.7   333   10.2 
2025-08-06 00:00 UT   21 20 17.5   -27 12 49     2.036    3.037  168.9    3.7   339   10.2 
2025-08-07 00:00 UT   21 19 25.1   -27 20 31     2.037    3.038  168.8    3.7   345   10.2 
2025-08-08 00:00 UT   21 18 32.5   -27 28 07     2.039    3.040  168.6    3.8   351   10.2 
2025-08-09 00:00 UT   21 17 39.9   -27 35 34     2.042    3.041  168.3    3.9   357   10.2 
2025-08-10 00:00 UT   21 16 47.3   -27 42 54     2.044    3.043  167.9    4.0     2   10.3 
2025-08-11 00:00 UT   21 15 54.7   -27 50 06     2.047    3.044  167.4    4.2     8   10.3 
2025-08-12 00:00 UT   21 15 02.1   -27 57 09     2.050    3.046  166.8    4.3    12   10.3 
2025-08-13 00:00 UT   21 14 09.8   -28 04 03     2.054    3.047  166.2    4.6    17   10.3 
2025-08-14 00:00 UT   21 13 17.6   -28 10 49     2.057    3.048  165.5    4.8    20   10.3 
2025-08-15 00:00 UT   21 12 25.7   -28 17 25     2.061    3.050  164.7    5.0    24   10.3 
2025-08-16 00:00 UT   21 11 34.2   -28 23 51     2.065    3.051  163.9    5.3    27   10.4 
2025-08-17 00:00 UT   21 10 43.0   -28 30 09     2.070    3.053  163.0    5.6    30   10.4 


    Terminology:
            
    delta:  distance between minor planet and earth in AU
    radius: distance between minor planet and sun in AU
    magn:   magnitude (brightness) estimate    
    ra:     right ascension in hours (24h = 360deg)
    dec:    declination in degrees
    elong:  elongation in degrees (angle sun-earth-minor planet)    
    phase:  phase angle in degrees (angle sun-minor planet-earth)        
    AU:     Astronomical Unit (mean distance between earth and sun: 149597870.7 km
    

Orbital elements provided by the MPC (Minor Planet Center).
Calculations by a modified version of AAPlus, a C# implementation of the AA+ project by PJ Naughter from the algorithms presented in the book "Astronomical Algorithms" by Jean Meeus.
NGC2000 dso catalog and star labels from VizieR as provided by the Strasbourg astronomical Data Center.
Tycho2 catalog from the ESO archive.